Miscellaneous Local Product
Issued by NWS North Platte, NE

Home | Current Version | Previous Version | Text Only | Print | Product List | Glossary On
Versions: 1 2 3 4 5 6 7 8 9 10 11 12 13 14 15 16 17 18 19 20 21 22 23 24 25 26 27 28 29 30 31 32 33 34 35 36 37 38 39 40 41 42 43 44 45 46 47 48 49 50
555
AXUS43 KLBF 231210
MISLBF


WESTERN AND NORTH CENTRAL NEBRASKA HOURLY WEATHER ROUNDUP
NATIONAL WEATHER SERVICE NORTH PLATTE NE
700 AM CDT SAT JUL 23 2016

NOTE: "FAIR" INDICATES FEW OR NO CLOUDS BELOW 12,000 FEET WITH NO
SIGNIFICANT WEATHER AND/OR OBSTRUCTIONS TO VISIBILITY.

NOTE: STATIONS NOT REPORTING VARIABLES SUCH AS SKY/WEATHER OR
PRESSURE ARE PROVIDED BY RAWS AND APRS NETWORKS AND ARE NOT UNDER
NATIONAL WEATHER SERVICE QUALITY CONTROL.

...OBSERVATIONS IN AND NEAR THE EASTERN PANHANDLE OF NEBRASKA...

CITY           SKY/WX    TMP DP  RH WIND       PRES   REMARKS
PINE RIDGE     CLEAR     68  63  84 S10       29.86F
CHADRON        CLEAR     64  60  87 SW7       29.87S
ALLIANCE       CLOUDY    63  61  93 CALM      29.93S
SIDNEY         CLOUDY    70  62  76 SW9       30.01R
CRESCENT LAKE    N/A     67  64  90 S3          N/A
$$

...OBSERVATIONS IN NORTHERN NEBRASKA AND FAR SOUTHERN SOUTH DAKOTA...

CITY           SKY/WX    TMP DP  RH WIND       PRES   REMARKS
WINNER         FAIR      75  62  64 S3        29.78F
VALENTINE      PTCLDY    69  64  84 S7        29.82F
THEDFORD       CLOUDY    67  64  90 CALM      29.87F
AINSWORTH      CLOUDY    68  66  92 NW6       29.83F
O`NEILL        CLOUDY    72  67  87 CALM      29.81F
ORD            CLOUDY    71  65  81 S8        29.82F
BROKEN BOW     PTCLDY    68  66  93 SE5       29.85S
VALENTINE NWR    N/A     68  64  85 CALM        N/A
BUTTE            N/A     72  67  86 CALM        N/A
HALSEY           N/A     72  62  69 CALM        N/A
EWING            N/A     72  69  92 CALM        N/A
$$

...OBSERVATIONS IN SOUTHWEST NEBRASKA AND FAR NORTHEAST COLORADO...

CITY           SKY/WX    TMP DP  RH WIND       PRES   REMARKS
WRAY           FAIR      70  63  78 S5        29.96F
HOLYOKE        FAIR      72  64  78 W5        29.97S
IMPERIAL       CLOUDY    72  63  73 S13       29.93R
OGALLALA       CLOUDY    69  65  88 CALM      29.95R
NORTH PLATTE   PTCLDY    68  66  93 S5        29.87S
MCCOOK         CLOUDY    77  63  61 S18G25    29.86F
LEXINGTON      CLOUDY    71  67  85 CALM      29.85F
STAPLETON        N/A     65  63  93 CALM        N/A
GOTHENBURG       N/A     70  65  83 CALM        N/A
CALLAWAY         N/A     67  65  95 S12         N/A
$$

...OBSERVATIONS IN CENTRAL LINCOLN COUNTY AREA...

CITY           SKY/WX    TMP DP  RH WIND       PRES   REMARKS
N.P. AIRPORT   PTCLDY    68  66  93 S5        29.87S
N.P. DOWNTOWN    N/A     68  66  93 CALM        N/A
N.P. SOUTHEAST   N/A     68  65  92 CALM        N/A
N.P. HILLCREST   N/A     67  65  95 CALM        N/A
$$

...SOME OBSERVATIONS FROM AROUND THE REGION...

CITY           SKY/WX    TMP DP  RH WIND       PRES   REMARKS
DENVER         PTCLDY    68  47  46 SW13      30.10R
LARAMIE        CLOUDY    59  41  51 NE8       30.25R
CHEYENNE       CLOUDY    65  43  44 W13       30.13S
SCOTTSBLUFF    CLOUDY    62  58  86 N5        29.95S
RAPID CITY     CLOUDY    63  56  78 SE7       29.81F
BISMARCK       PTCLDY    69  63  81 E12       29.78F
PIERRE         CLOUDY    76  73  91 E8        29.76F
SIOUX FALLS    TSTM      72  70  93 N7        29.85S
OMAHA          CLOUDY    83  70  64 S8        29.86F
GRAND ISLAND   CLOUDY    72  69  90 SE7       29.85S
KANSAS CITY    MOCLDY    79  73  82 S8        29.95R
WICHITA        PTCLDY    75  67  76 S3        29.95R
OKLAHOMA CITY  PTCLDY    72  67  84 SE7       29.97S
DALLAS         PTCLDY    83  69  62 SW9       29.96R
AMARILLO       CLEAR     68  54  60 S10       30.07S
DODGE CITY     PTCLDY    72  61  68 S8        29.96R
HAYS           CLOUDY    75  63  64 NE3       29.96S
GOODLAND       MOCLDY    68  65  90 E8        29.97R
$$




USA.gov is the U.S. government's official web portal to all federal, state and local government web resources and services.